GW4330 Weather Reports


time (UTC)temp
C
wind
direction
speed
KPH
gust
KPH
rain 1hr
cm
rain 24hr
cm
rain mn
cm
humidity
%
barometer
mb
20260509034921 15 34 6.4 6.4 0.00 0.03 0.03 81 1019.3
20260509034419 15 57 3.2 3.2 0.00 0.03 0.03 81 1019.4
20260509033916 16 93 0.0 0.0 0.00 0.03 0.03 80 1019.2
20260509033413 16 78 1.6 1.6 0.00 0.03 0.03 80 1019.6
20260509032909 16 82 1.6 3.2 0.00 0.03 0.03 79 1019.6
20260509032407 16 63 3.2 4.8 0.00 0.03 0.03 79 1019.5
20260509031905 16 76 0.0 1.6 0.00 0.03 0.03 79 1019.5
20260509031402 16 62 1.6 3.2 0.00 0.03 0.03 79 1019.5
20260509030859 16 65 0.0 0.0 0.00 0.03 0.03 78 1019.6
20260509030357 16 70 1.6 3.2 0.00 0.03 0.03 78 1019.5
20260509025854 16 72 1.6 1.6 0.00 0.03 0.03 79 1019.5
20260509025349 16 14 4.8 4.8 0.00 0.03 0.03 80 1019.4
20260509024845 16 32 0.0 1.6 0.00 0.03 0.03 80 1019.4
20260509024341 16 90 1.6 1.6 0.00 0.03 0.03 80 1019.4
20260509023838 16 65 1.6 3.2 0.00 0.03 0.03 80 1019.6
20260509023336 16 88 0.0 0.0 0.00 0.03 0.03 79 1019.6
20260509022832 16 70 1.6 1.6 0.00 0.03 0.03 79 1019.8
20260509022330 16 21 1.6 1.6 0.00 0.03 0.03 78 1019.8
20260509021826 16 75 0.0 1.6 0.00 0.03 0.03 77 1019.8
20260509021323 16 98 3.2 3.2 0.00 0.03 0.03 78 1019.8
20260509020821 16 61 0.0 1.6 0.00 0.03 0.03 76 1019.8
20260509020319 16 72 0.0 0.0 0.00 0.03 0.03 75 1019.9
20260509015816 17 70 1.6 3.2 0.00 0.03 0.03 75 1019.6
20260509015314 17 72 0.0 1.6 0.00 0.03 0.03 76 1019.5
20260509014810 17 65 0.0 1.6 0.00 0.03 0.03 75 1019.4
20260509014308 17 58 3.2 3.2 0.00 0.03 0.03 75 1019.6
20260509013804 17 60 1.6 1.6 0.00 0.03 0.03 75 1019.4
20260509013300 17 62 1.6 3.2 0.00 0.03 0.03 76 1019.4
20260509012756 18 61 1.6 4.8 0.00 0.03 0.03 74 1019.2
20260509012253 18 81 1.6 3.2 0.00 0.03 0.03 74 1018.9
20260509011751 18 74 0.0 1.6 0.00 0.03 0.03 71 1019.0
20260509011248 18 46 1.6 3.2 0.00 0.03 0.03 72 1018.7
20260509010746 18 70 1.6 4.8 0.00 0.03 0.03 71 1018.8
20260509010242 18 70 1.6 3.2 0.00 0.03 0.03 73 1018.6
20260509005740 18 68 1.6 3.2 0.00 0.03 0.03 73 1018.6
20260509005232 18 40 1.6 4.8 0.00 0.03 0.03 70 1018.5
20260509004731 18 78 0.0 1.6 0.00 0.03 0.03 71 1018.7
20260509004229 18 87 3.2 9.7 0.00 0.03 0.03 70 1018.9
20260509003727 18 82 1.6 3.2 0.00 0.03 0.03 69 1018.7
20260509003224 18 70 1.6 1.6 0.00 0.03 0.03 66 1018.7
20260509002721 18 74 1.6 4.8 0.00 0.03 0.03 68 1018.6
20260509002219 18 88 3.2 4.8 0.00 0.03 0.03 70 1018.5
20260509001716 18 74 3.2 9.7 0.00 0.03 0.03 69 1018.5
20260509001212 18 86 1.6 3.2 0.00 0.03 0.03 68 1018.7
20260509000710 18 79 1.6 3.2 0.00 0.03 0.03 68 1018.4
20260509000207 18 70 3.2 4.8 0.00 0.03 0.03 72 1018.5
20260508235704 19 69 3.2 3.2 0.00 0.03 0.03 73 1018.5
20260508235200 19 66 3.2 4.8 0.00 0.03 0.03 70 1018.4
20260508234658 19 49 4.8 6.4 0.00 0.03 0.03 72 1018.3
20260508234154 18 72 4.8 4.8 0.00 0.03 0.03 71 1018.1
20260508233654 18 50 3.2 4.8 0.00 0.03 0.03 68 1018.3
20260508233151 18 30 1.6 3.2 0.00 0.03 0.03 67 1018.2
20260508232648 18 55 4.8 6.4 0.00 0.03 0.03 66 1018.5
20260508232144 18 79 1.6 1.6 0.00 0.03 0.03 65 1018.1
20260508231643 18 75 6.4 9.7 0.00 0.03 0.03 64 1018.1
20260508231139 18 72 3.2 3.2 0.00 0.03 0.03 64 1017.9
20260508230636 18 28 3.2 4.8 0.00 0.03 0.03 62 1017.9
20260508230132 18 18 3.2 4.8 0.00 0.03 0.03 61 1017.9
20260508225631 18 20 3.2 4.8 0.00 0.03 0.03 61 1017.7
20260508225126 18 12 6.4 12.9 0.00 0.03 0.03 61 1017.9
20260508224624 19 72 6.4 11.3 0.00 0.03 0.03 59 1017.8
20260508224122 19 68 1.6 3.2 0.00 0.03 0.03 59 1017.7
20260508223619 20 37 3.2 3.2 0.00 0.03 0.03 59 1017.8
20260508223116 20 83 3.2 4.8 0.00 0.03 0.03 56 1017.7
20260508222614 20 66 8.0 11.3 0.00 0.03 0.03 54 1017.6
20260508222111 20 72 0.0 1.6 0.00 0.03 0.03 54 1017.6
20260508221607 20 51 1.6 1.6 0.00 0.03 0.03 56 1017.6
20260508221102 20 64 1.6 1.6 0.00 0.03 0.03 52 1017.9
20260508220559 20 70 1.6 3.2 0.00 0.03 0.03 51 1017.7
20260508220055 21 70 0.0 0.0 0.00 0.03 0.03 51 1017.8
20260508215553 20 49 1.6 1.6 0.00 0.03 0.03 52 1017.7
20260508215049 20 77 0.0 0.0 0.00 0.03 0.03 52 1017.9
20260508214547 20 59 0.0 0.0 0.00 0.03 0.03 53 1017.9
20260508214043 20 66 0.0 1.6 0.00 0.03 0.03 54 1018.3
20260508213540 20 80 0.0 0.0 0.00 0.03 0.03 54 1018.0
20260508213036 20 68 0.0 1.6 0.00 0.03 0.03 54 1018.2
20260508212533 20 86 1.6 1.6 0.00 0.03 0.03 54 1017.9
20260508212029 20 45 0.0 1.6 0.00 0.03 0.03 55 1018.3
20260508211525 20 72 0.0 1.6 0.00 0.03 0.03 55 1018.0
20260508211021 20 76 0.0 0.0 0.00 0.03 0.03 55 1018.0
20260508210518 20 56 0.0 1.6 0.00 0.03 0.03 53 1017.8
20260508210016 20 72 0.0 1.6 0.00 0.03 0.03 56 1018.0
20260508205512 20 81 0.0 0.0 0.00 0.03 0.03 54 1017.8
20260508205008 20 74 0.0 0.0 0.00 0.03 0.03 54 1017.8
20260508204506 20 81 0.0 0.0 0.00 0.03 0.03 53 1018.1
20260508204001 20 91 1.6 3.2 0.00 0.03 0.03 52 1017.9
20260508203457 20 79 1.6 1.6 0.00 0.03 0.03 50 1018.1
20260508202953 20 60 0.0 1.6 0.00 0.03 0.03 50 1018.1
20260508202450 20 65 1.6 1.6 0.00 0.03 0.03 46 1018.4
20260508201947 20 46 0.0 1.6 0.00 0.03 0.03 49 1018.4
20260508201444 20 65 0.0 1.6 0.00 0.03 0.03 49 1018.3
20260508200941 20 57 0.0 1.6 0.00 0.03 0.03 51 1018.4
20260508200438 20 104 0.0 0.0 0.00 0.03 0.03 53 1018.6
20260508195932 20 64 1.6 1.6 0.00 0.03 0.03 49 1018.4
20260508195430 20 72 0.0 0.0 0.00 0.03 0.03 51 1018.6
20260508194926 20 86 0.0 1.6 0.00 0.03 0.03 53 1018.7
20260508194424 20 47 0.0 1.6 0.00 0.03 0.03 57 1018.9
20260508193920 20 66 1.6 1.6 0.00 0.03 0.03 55 1018.8
20260508193417 19 65 0.0 1.6 0.00 0.03 0.03 56 1019.1
20260508192913 19 62 0.0 1.6 0.00 0.03 0.03 58 1019.0
20260508192410 20 75 0.0 1.6 0.00 0.03 0.03 55 1019.1
20260508191908 20 78 0.0 1.6 0.00 0.03 0.03 56 1019.2
20260508191405 20 97 0.0 1.6 0.00 0.03 0.03 57 1019.3
20260508190902 20 51 0.0 1.6 0.00 0.03 0.03 56 1019.5
20260508190359 20 45 1.6 1.6 0.00 0.03 0.03 56 1019.3
20260508185854 19 63 0.0 1.6 0.00 0.03 0.03 57 1019.3
20260508185352 19 79 0.0 0.0 0.00 0.03 0.03 57 1019.6
20260508184849 19 64 1.6 3.2 0.00 0.03 0.03 56 1019.6
20260508184347 19 60 0.0 0.0 0.00 0.03 0.03 59 1019.6
20260508183843 20 28 1.6 3.2 0.00 0.03 0.03 59 1019.6
20260508183340 20 68 1.6 1.6 0.00 0.03 0.03 59 1019.7
20260508182836 20 74 1.6 1.6 0.00 0.03 0.03 60 1019.8
20260508182333 20 44 0.0 1.6 0.00 0.03 0.03 59 1019.8
20260508181828 19 72 0.0 1.6 0.00 0.03 0.03 63 1019.8
20260508181325 19 102 1.6 1.6 0.00 0.03 0.03 60 1019.8
20260508180823 20 81 0.0 1.6 0.00 0.03 0.03 59 1019.7
20260508180319 20 64 3.2 4.8 0.00 0.03 0.03 62 1019.9
20260508175815 19 66 0.0 1.6 0.00 0.03 0.03 63 1019.8
20260508175312 19 84 1.6 3.2 0.00 0.03 0.03 62 1019.8
20260508174810 19 83 3.2 3.2 0.00 0.03 0.03 65 1019.9
20260508174307 19 62 1.6 3.2 0.00 0.03 0.03 65 1019.9
20260508173803 18 97 3.2 4.8 0.00 0.03 0.03 67 1020.0
20260508173301 18 73 1.6 1.6 0.00 0.03 0.03 66 1020.0
20260508172756 19 51 1.6 3.2 0.00 0.03 0.03 66 1019.9
20260508172254 18 111 3.2 3.2 0.00 0.03 0.03 64 1019.8
20260508171750 18 92 1.6 4.8 0.00 0.03 0.03 68 1020.0
20260508171246 18 73 3.2 4.8 0.00 0.03 0.03 67 1020.1
20260508170743 18 78 1.6 3.2 0.00 0.03 0.03 65 1020.2
20260508170241 18 20 0.0 1.6 0.00 0.03 0.03 63 1020.2
20260508165738 18 55 0.0 3.2 0.00 0.03 0.03 66 1020.1
20260508165235 18 60 1.6 1.6 0.00 0.03 0.03 65 1020.4
20260508164731 18 46 1.6 3.2 0.00 0.03 0.03 64 1020.4
20260508164228 19 22 1.6 3.2 0.00 0.03 0.03 62 1020.4
20260508163726 20 64 3.2 3.2 0.00 0.03 0.03 64 1020.4
20260508163223 19 56 0.0 1.6 0.00 0.03 0.03 50 1020.6
20260508162719 19 43 0.0 1.6 0.00 0.03 0.03 51 1020.4
20260508162216 20 57 0.0 1.6 0.00 0.03 0.03 49 1020.6
20260508161713 20 64 0.0 1.6 0.00 0.03 0.03 49 1020.6
20260508161210 19 47 1.6 3.2 0.00 0.03 0.03 51 1020.7
20260508160708 20 62 4.8 4.8 0.00 0.03 0.03 47 1020.7
20260508160206 20 46 1.6 1.6 0.00 0.03 0.03 47 1020.7
20260508155703 21 25 3.2 4.8 0.00 0.03 0.03 52 1020.8
20260508155159 19 102 3.2 3.2 0.00 0.03 0.03 51 1020.7
20260508154657 19 295 8.0 11.3 0.00 0.03 0.03 48 1020.7
20260508154153 19 212 3.2 3.2 0.00 0.03 0.03 52 1020.8
20260508153650 19 26 3.2 3.2 0.00 0.03 0.03 53 1020.7
20260508153147 19 280 4.8 4.8 0.00 0.03 0.03 54 1020.8
20260508152644 18 73 1.6 1.6 0.00 0.03 0.03 55 1020.7
20260508152139 19 31 6.4 9.7 0.00 0.03 0.03 54 1020.7
20260508151636 19 79 1.6 1.6 0.00 0.03 0.03 51 1020.6
20260508151133 19 157 3.2 4.8 0.00 0.03 0.03 57 1020.8
20260508150630 18 184 4.8 4.8 0.00 0.03 0.03 55 1020.7
20260508150127 18 342 3.2 4.8 0.00 0.03 0.03 57 1020.6
20260508145622 18 97 1.6 3.2 0.00 0.03 0.03 61 1020.4
20260508145119 18 60 0.0 1.6 0.00 0.03 0.03 61 1020.5
20260508144617 18 217 3.2 6.4 0.00 0.03 0.03 58 1020.5
20260508144114 18 244 6.4 9.7 0.00 0.03 0.03 61 1020.5
20260508143612 18 139 1.6 3.2 0.00 0.03 0.03 61 1020.6
20260508143108 17 290 9.7 12.9 0.00 0.03 0.03 58 1020.4
20260508142605 17 51 4.8 11.3 0.00 0.03 0.03 58 1020.5
20260508142101 17 306 6.4 9.7 0.00 0.03 0.03 60 1020.6
20260508141558 17 242 4.8 6.4 0.00 0.03 0.03 60 1020.3
20260508141055 17 350 6.4 12.9 0.00 0.03 0.03 61 1020.4
20260508140553 17 245 6.4 6.4 0.00 0.03 0.03 59 1020.5
20260508140049 17 129 4.8 6.4 0.00 0.03 0.03 62 1020.4
20260508135545 17 298 6.4 12.9 0.00 0.03 0.03 61 1020.4
20260508135041 16 304 1.6 3.2 0.00 0.03 0.03 64 1020.3
20260508134538 17 150 3.2 3.2 0.00 0.03 0.03 62 1020.4
20260508134035 16 161 9.7 16.1 0.00 0.03 0.03 63 1020.2
20260508133532 16 165 3.2 3.2 0.00 0.03 0.03 63 1020.3
20260508133029 16 7 4.8 9.7 0.00 0.03 0.03 66 1020.2
20260508132527 16 268 3.2 4.8 0.00 0.03 0.03 68 1020.3
20260508132023 16 349 1.6 6.4 0.00 0.03 0.03 68 1020.2
20260508131519 16 72 3.2 3.2 0.00 0.03 0.03 68 1020.2
20260508131015 16 139 3.2 4.8 0.00 0.03 0.03 68 1020.2
20260508130513 16 9 6.4 9.7 0.00 0.03 0.03 68 1019.9
20260508130009 15 29 3.2 6.4 0.00 0.03 0.03 70 1020.0
20260508125505 15 221 4.8 4.8 0.00 0.03 0.03 74 1019.9
20260508125003 15 126 0.0 1.6 0.00 0.03 0.03 78 1020.0
20260508124500 15 175 3.2 3.2 0.00 0.03 0.03 81 1019.7
20260508123957 14 232 6.4 9.7 0.00 0.03 0.03 82 1019.9
20260508123456 14 85 0.0 1.6 0.00 0.03 0.03 85 1019.7
20260508122952 13 74 0.0 1.6 0.00 0.03 0.03 87 1019.7
20260508122449 13 197 3.2 3.2 0.00 0.03 0.03 87 1019.9
20260508121946 13 328 4.8 4.8 0.00 0.03 0.03 90 1019.7
20260508121444 12 213 4.8 9.7 0.00 0.03 0.03 91 1019.5
20260508120942 12 232 3.2 3.2 0.00 0.03 0.03 93 1019.3
20260508120439 11 104 1.6 3.2 0.00 0.03 0.03 95 1019.3
20260508115937 11 123 3.2 4.8 0.00 0.03 0.03 95 1019.3
20260508115435 11 114 6.4 6.4 0.00 0.03 0.03 96 1019.3
20260508114931 11 200 4.8 6.4 0.00 0.03 0.03 97 1019.4
20260508114428 11 224 3.2 3.2 0.00 0.03 0.03 97 1019.2
20260508113924 10 196 0.0 3.2 0.00 0.03 0.03 98 1019.2
20260508113422 10 126 0.0 0.0 0.00 0.03 0.03 98 1019.1
20260508112919 10 103 1.6 1.6 0.00 0.03 0.03 98 1019.1
20260508112416 10 107 0.0 1.6 0.00 0.03 0.03 98 1019.0
20260508111913 10 109 0.0 0.0 0.00 0.03 0.03 99 1018.9
20260508111410 10 97 0.0 0.0 0.00 0.03 0.03 99 1018.9
20260508110907 10 118 0.0 1.6 0.00 0.03 0.03 99 1018.9
20260508110405 10 105 0.0 0.0 0.00 0.03 0.03 99 1018.7
20260508105904 10 96 0.0 0.0 0.00 0.03 0.03 99 1018.5
20260508105401 9 110 0.0 0.0 0.00 0.03 0.03 99 1018.5
20260508104858 9 111 0.0 0.0 0.00 0.03 0.03 99 1018.3
20260508104355 9 106 0.0 0.0 0.00 0.03 0.03 98 1018.4
20260508103852 9 103 0.0 0.0 0.13 0.03 0.03 98 1018.2
20260508103349 9 116 0.0 0.0 0.13 0.03 0.03 98 1018.4
20260508102846 9 101 0.0 0.0 0.00 0.00 0.00 98 1018.0
20260508102344 9 108 0.0 0.0 0.00 0.00 0.00 98 1018.3
20260508101842 9 116 0.0 0.0 0.00 0.00 0.00 98 1018.1
20260508101339 9 115 0.0 0.0 0.00 0.00 0.00 98 1018.1
20260508100836 9 127 0.0 1.6 0.00 0.00 0.00 98 1017.9
20260508100335 9 109 0.0 0.0 0.00 0.00 0.00 98 1017.9
20260508095830 9 133 0.0 1.6 0.00 0.00 0.00 98 1018.0
20260508095328 10 138 0.0 0.0 0.00 0.00 0.00 98 1017.9
20260508094825 10 161 1.6 1.6 0.00 0.00 0.00 98 1017.8
20260508094322 10 154 1.6 1.6 0.00 0.00 0.00 98 1017.7
20260508093819 10 186 1.6 1.6 0.00 0.00 0.00 98 1017.6
20260508093316 10 200 3.2 3.2 0.00 0.00 0.00 98 1017.8
20260508092813 10 162 0.0 1.6 0.00 0.00 0.00 98 1017.7
20260508092313 10 96 0.0 0.0 0.00 0.00 0.00 98 1017.5
20260508091809 10 94 0.0 1.6 0.00 0.00 0.00 98 1017.4
20260508091300 10 242 0.0 1.6 0.00 0.00 0.00 98 1017.4
20260508090758 10 262 1.6 1.6 0.00 0.00 0.00 98 1017.1
20260508090256 10 109 0.0 0.0 0.00 0.00 0.00 98 1017.3
20260508085751 10 108 0.0 1.6 0.00 0.00 0.00 98 1017.2
20260508085248 10 133 1.6 1.6 0.00 0.00 0.00 98 1017.1
20260508084743 10 106 0.0 1.6 0.00 0.00 0.00 98 1017.3
20260508084241 10 121 0.0 0.0 0.00 0.00 0.00 98 1017.1
20260508083738 10 129 1.6 1.6 0.00 0.00 0.00 98 1017.1
20260508083236 10 121 0.0 0.0 0.00 0.00 0.00 98 1017.0
20260508082730 10 145 0.0 1.6 0.00 0.00 0.00 98 1017.0
20260508082229 10 199 1.6 1.6 0.00 0.00 0.00 98 1017.0
20260508081726 10 120 0.0 0.0 0.00 0.00 0.00 98 1016.8
20260508081222 10 156 1.6 1.6 0.00 0.00 0.00 98 1016.9
20260508080719 10 118 1.6 1.6 0.00 0.00 0.00 97 1017.0
20260508080218 10 270 1.6 1.6 0.00 0.00 0.00 97 1016.8
20260508075714 10 103 0.0 0.0 0.00 0.00 0.00 97 1016.6
20260508075211 10 126 1.6 1.6 0.00 0.00 0.00 97 1016.7
20260508074708 10 101 0.0 0.0 0.00 0.00 0.00 97 1016.5
20260508074206 10 104 0.0 0.0 0.00 0.00 0.00 97 1016.5
20260508073702 10 94 0.0 0.0 0.00 0.00 0.00 97 1016.7
20260508073200 11 109 0.0 0.0 0.00 0.00 0.00 97 1016.6
20260508072655 11 104 0.0 0.0 0.00 0.00 0.00 97 1016.5
20260508072153 11 102 0.0 0.0 0.00 0.00 0.00 96 1016.7
20260508071650 11 135 1.6 3.2 0.00 0.00 0.00 96 1016.8
20260508071149 11 168 1.6 1.6 0.00 0.00 0.00 97 1016.7
20260508070646 11 163 3.2 4.8 0.00 0.00 0.00 97 1016.6
20260508070144 11 113 1.6 1.6 0.00 0.00 0.00 97 1016.6
20260508065641 11 132 0.0 1.6 0.00 0.00 0.00 97 1016.5
20260508065139 11 127 1.6 1.6 0.00 0.00 0.00 97 1016.5
20260508064636 11 105 0.0 1.6 0.00 0.00 0.00 97 1016.4
20260508064134 11 135 0.0 1.6 0.00 0.00 0.00 97 1016.5
20260508063631 11 101 0.0 0.0 0.00 0.00 0.00 97 1016.4
20260508063130 11 134 3.2 4.8 0.00 0.00 0.00 97 1016.4
20260508062627 11 108 1.6 3.2 0.00 0.00 0.00 97 1016.5
20260508062123 11 240 3.2 3.2 0.00 0.00 0.00 97 1016.4
20260508061621 11 123 3.2 3.2 0.00 0.00 0.00 97 1016.1
20260508061118 11 133 0.0 1.6 0.00 0.00 0.00 97 1016.1
20260508060614 11 152 1.6 1.6 0.00 0.00 0.00 97 1015.9
20260508060112 11 115 0.0 0.0 0.00 0.00 0.00 97 1016.0
20260508055607 11 109 0.0 0.0 0.00 0.00 0.00 97 1016.1
20260508055105 11 110 0.0 0.0 0.00 0.00 0.00 97 1015.9
20260508054601 11 113 0.0 0.0 0.00 0.00 0.00 96 1015.9
20260508054058 11 137 1.6 1.6 0.00 0.00 0.00 96 1016.0
20260508053555 11 120 0.0 0.0 0.00 0.00 0.00 96 1015.8
20260508053053 11 115 0.0 0.0 0.00 0.00 0.00 96 1015.9
20260508052550 11 115 0.0 0.0 0.00 0.00 0.00 96 1016.0
20260508052047 11 125 0.0 0.0 0.00 0.00 0.00 96 1015.9
20260508051543 11 112 0.0 0.0 0.00 0.00 0.00 96 1016.1
20260508051038 11 106 0.0 0.0 0.00 0.00 0.00 96 1015.9
20260508050535 11 233 0.0 1.6 0.00 0.00 0.00 96 1015.9
20260508050032 11 233 0.0 0.0 0.00 0.00 0.00 95 1015.8
20260508045528 11 233 0.0 0.0 0.00 0.00 0.00 95 1015.9
20260508045026 11 233 0.0 0.0 0.00 0.00 0.00 95 1016.0
20260508044524 11 94 0.0 0.0 0.00 0.00 0.00 95 1015.9
20260508044019 11 112 0.0 0.0 0.00 0.00 0.00 95 1015.9
20260508043516 11 111 0.0 0.0 0.00 0.00 0.00 95 1015.7
20260508043013 11 147 1.6 1.6 0.00 0.00 0.00 95 1015.5
20260508042510 11 200 1.6 1.6 0.00 0.00 0.00 95 1015.5
20260508042007 11 146 1.6 1.6 0.00 0.00 0.00 95 1015.6
20260508041504 11 186 0.0 1.6 0.00 0.00 0.00 95 1015.2
20260508041000 11 130 0.0 1.6 0.00 0.00 0.00 95 1015.6
20260508040458 11 114 0.0 0.0 0.00 0.00 0.00 95 1015.2
20260508035955 11 107 0.0 1.6 0.00 1.60 1.60 95 1015.4
20260508035452 11 175 4.8 4.8 0.00 1.60 1.60 95 1015.3